SCP
0 0 0 0 0 0 0 0 0 0 0 0 0 0 0 0 0 0 0 0 -0 -0 0 0 0 0 0 0 0 0 0 0 0 0 0 -0 -0 0 0 -0 -0 -0 -0 -0 -0 -0 -0 -0 -0
0 0 0 0 0 0 0 0 0 0 0 -0 -0 0 0 0 0 0 0 0 -0 -0 0 0 0 0 0 0 0 0 0 0 0 0 0 0 0 0 0 0 0 0 -0 -0 -0 -0 -0 0 0
0 0 0 0 0 0 0 0 0 0 0 0 0 0 0 0 0 0 0 -0 -0 0 0 0 -0 0 0 0 0 0 0 0 0 0 0 0 0 0 0 0 0 0 0 -0 -0 -0 -0 0 -0
0 0 0 0 0 0 0 0 0 0 0 0 0 0 0 0 0 0 -0 -0 0 0 0 0 0 0 0 0 0 0 0 0 0 0 0 0 0 0 0 0 0 0 0 0 0 -0 0 -0 -0
0 0 0 0 0 0 0 0 0 0 0 0 0 0 0 0 0 0 -0 0 0 0 0 0 0 0 0 0 0 0 0 0 0 0 0 0 0 0 0 0 -0 -0 -0 -0 -0 -0 -0 -0 -0
0 0 0 0 0 0 0 0 0 0 0 0 0 0 0 0 0 0 0 0 0 0 0 0 0 0 0 0 0 0 0 0 0 0 0 0 0 0 0 0 0 -0 -0 -0 -0 -0 -0 -0 -0
0 0 0 0 0 0 0 0 0 0 0 0 0 0 0 0 0 0 0 0 0 0 0 0 0 0 0 0 0 0 0 0 0 0 0 0 0 0 0 0 0 0 0 0 0 -0 -0 -0 -0
0 0 0 0 0 0 0 0 0 0 0 0 0 0 0 0 0 0 0 0 0 0 0 0 0 0 0 0 0 0 0 0 0 0 0 0 0 0 0 0 0 0 0 0 0 -0 -0 -0 -0
0 0 0 0 0 0 0 0 0 0 0 0 0 0 0 0 0 0 0 0 0 0 0 0 0 0 0 0 0 0 0 0 0 0 0 0 0 0 0 0 0 -0 -0 -0 -0 -0 -0 -0 -0
0 0 0 0 0 0 0 0 0 0 0 0 0 0 0 0 0 0 0 0 0 0 0 0 0 0 0 0 0 0 0 0 0 0 0 0 0 0 0 -0 -0 -0 0 -0 0 0 -0 -0 0
0 0 0 0 0 0 0 0 0 0 0 0 0 0 0 0 0 0 0 0 0 0 0 0 0 0 0 0 0 0 0 0 0 0 0 0 0 0 0 0 0 0 0 0 0 0 0 0 0
0 0 0 0 0 0 0 0 0 0 0 0 0 0 0 0 0 0 0 0 0 0 0 0 0 0 0 0 0 0 0 0 0 0 0 0 0 0 0 0 0 0 0 0 0 0 0 0 0
0 0 0 0 0 0 0 0 0 0 0 0 0 0 0 0 0 0 0 0 0 0 0 0 0 0 0 0 0 0 0 0 0 0 0 0 0 0 0 0 0 0 0 0 0 0 0 0 0
0 0 0 0 0 0 0 0 0 0 0 0 0 0 0 0 0 0 0 0 0 0 0 0 0 0 0 0 0 0 0 0 0 0 0 0 0 0 0 0 0 0 0 0 0 0 0 0 0
0 0 0 0 0 0 0 0 0 0 0 0 0 0 0 0 0 0 0 0 0 0 0 0 0 0 0 0 0 0 0 0 0 0 0 0 0 0 0 0 0 0 0 0 0 0 0 0 0
0 0 0 0 0 0 0 0 0 0 0 0 0 0 0 0 0 0 0 0 0 0 0 0 0 0 0 0 0 0 0 0 0 0 0 0 0 0 0 0 0 0 0 0 0 0 0 0 0
0 0 0 0 0 0 0 0 0 0 0 0 0 0 0 0 0 0 0 0 0 0 0 0 0 0 0 0 0 0 0 0 0 0 0 0 0 0 0 0 0 0 0 0 0 0 0 0 0
0 0 0 0 0 0 0 0 0 0 0 0 0 0 0 0 0 0 0 0 0 0 0 0 0 0 0 0 0 0 0 0 0 0 0 0 0 0 0 0 0 0 0 0 0 0 0 0 0
0 0 0 0 0 0 0 0 0 0 0 0 0 0 0 0 0 0 0 0 0 0 0 0 0 0 0 0 0 0 0 0 0 0 0 0 0 0 0 0 0 0 0 0 0 0 0 0 0
0 0 0 0 0 0 0 0 0 0 0 0 0 0 0 0 0 0 0 0 0 0 0 0 0 0 0 0 0 0 0 0 0 0 0 0 0 0 0 0 0 0 0 0 0 0 0 0 0
-0 0 0 0 0 0 0 0 0 0 0 0 0 0 0 0 0 0 0 0 0 0 0 0 0 0 0 0 0 0 0 0 0 0 0 0 0 0 0 0 0 0 0 0 0 0 0 0 0
-0 -0 0 0 0 0 0 0 0 0 0 0 0 0 0 0 0 0 0 0 0 0 0 0 0 0 0 0 0 0 0 0 0 0 0 0 0 0 0 0 0 0 0 0 0 0 0 0 0
0 -0 0 0 0 0 0 0 0 0 0 0 0 0 0 0 0 0 0 0 0 0 0 0 0 0 0 0 0 0 0 0 0 0 0 0 0 0 0 0 0 0 0 0 0 0 0 0 0
0 0 -0 0 0 0 0 0 0 0 0 0 0 0 0 0 0 0 0 0 0 0 0 0 0 0 0 0 0 0 0 0 0 0 0 0 0 0 0 0 0 0 0 0 0 0 0 0 0
0 0 0 0 0 0 0 0 0 0 0 0 0 0 0 0 0 0 0 0 0 0 0 0 0 0 0 0 0 0 0 0 0 0 0 0 0 0 0 0 0 0 0 0 0 0 0 0 0
0 0 0 0 0 0 0 0 0 0 0 0 0 0 0 0 0 0 0 0 0 0 0 0 0 0 0 0 0 0 0 0 0 0 0 0 0 0 0 0 0 0 0 0 0 0 0 0 0
0 0 0 0 0 -0 -0 -0 0 0 0 0 0 0 0 0 0 0 0 0 0 0 0 0 0 0 0 0 0 0 0 0 0 0 0 0 0 0 0 0 0 0 0 0 0 0 0 0 0
0 0 0 0 0 0 0 -0 0 0 0 0 0 0 0 0 0 0 0 0 0 0 0 0 0 0 0 0 0 0 0 0 0 0 0 0 0 0 0 0 0 0 0 0 0 0 0 0 0
0 0 0 0 0 0 0 0 0 0 0 0 0 0 0 0 0 0 0 0 0 0 0 0 0 0 0 0 0 0 0 0 0 0 0 0 0 0 0 0 0 0 0 0 0 0 0 0 0
0 0 0 0 0 0 0 0 0 0 -0 0 0 0 0 0 0 0 0 0 0 0 0 0 0 0 0 0 0 0 0 0 0 0 0 0 0 0 0 0 0 0 0 0 0 0 0 0 0
Wind_Speed_500mb
6 7 6 4 10 8 7 6 0 12 11 6 9 2 8 14 8 6 32 25 37 40 31 24 22 24 27 23 22 21 18 19 19 18 19 19 18 18 19 19 20 21 21 21 21 20 19 19 19
8 8 6 5 10 17 15 8 11 5 16 25 20 12 8 10 9 29 24 37 38 38 30 28 28 26 22 19 20 18 18 17 18 18 17 17 16 17 17 18 19 19 18 18 18 18 19 18 18
8 11 10 7 8 20 14 15 17 28 20 13 10 12 7 9 21 18 24 43 42 38 31 29 31 26 22 24 14 11 14 17 16 16 16 16 17 17 18 18 17 16 16 16 16 16 18 17 17
8 5 3 14 21 10 4 17 21 26 11 8 20 17 13 15 9 16 36 41 41 37 33 33 27 25 21 22 11 7 9 13 15 15 14 15 15 15 15 15 15 15 15 17 18 18 18 18 18
9 6 13 15 18 4 8 11 32 20 14 18 8 14 19 13 17 32 39 39 40 38 37 34 29 27 27 23 14 6 9 11 12 13 13 12 12 11 12 13 14 15 15 16 17 19 19 19 18
10 6 13 21 20 9 8 18 23 16 15 17 16 21 13 18 27 36 37 35 34 36 38 36 33 32 25 23 14 8 11 11 11 10 9 9 9 10 11 13 14 15 15 17 19 19 20 20 21
14 12 20 24 18 12 15 19 22 20 23 12 22 14 14 22 36 37 33 32 31 31 35 34 33 32 28 23 18 11 9 8 10 9 8 10 11 11 12 13 14 14 17 19 20 21 21 22 23
7 10 20 21 21 17 20 18 14 17 12 17 9 11 17 33 45 40 37 36 29 27 32 32 30 29 28 23 17 9 8 7 6 7 8 9 10 11 12 12 13 14 16 18 20 21 22 23 24
13 12 22 27 19 17 23 15 8 11 24 11 5 12 29 53 47 41 35 35 32 31 31 31 29 27 27 20 14 9 6 5 4 5 7 9 11 12 13 14 14 16 18 21 23 26 28 28 28
17 16 24 16 16 17 30 23 24 17 26 12 14 30 46 54 48 39 38 32 31 31 32 29 27 24 23 20 15 11 8 7 6 6 6 7 8 10 11 16 17 18 20 22 24 25 27 30 30
15 21 15 16 14 16 25 22 11 21 13 13 30 49 50 51 45 35 29 29 29 28 27 30 29 25 21 16 13 10 10 9 6 5 7 6 9 14 19 20 23 24 24 24 24 25 26 28 33
16 24 14 12 13 14 28 24 20 16 4 11 41 47 48 47 42 34 30 28 25 21 22 24 22 21 18 15 12 11 9 7 2 2 5 6 10 12 16 17 20 22 24 20 21 26 26 27 30
21 14 20 7 13 17 25 22 20 17 22 36 43 45 49 48 42 33 31 31 23 19 17 23 24 21 19 17 15 12 10 9 8 5 7 12 13 12 17 17 19 25 25 22 24 30 30 31 29
20 19 18 19 22 22 31 25 11 9 26 42 48 48 45 43 40 34 32 33 29 24 23 21 22 21 18 16 16 14 11 9 7 8 9 11 14 18 22 24 25 16 19 21 24 31 34 37 35
7 21 13 17 25 9 47 14 10 16 27 37 45 44 41 38 37 34 30 29 26 21 22 24 21 24 23 21 19 12 10 13 15 13 13 17 18 8 5 14 16 18 24 26 28 31 31 27 24
17 17 24 11 18 19 11 21 9 22 26 31 36 38 38 37 34 32 29 26 28 29 29 28 26 27 28 23 21 22 23 22 17 9 13 16 8 8 12 15 20 24 27 28 25 22 22 27 30
7 30 41 16 6 13 14 18 23 32 23 27 30 31 33 32 31 30 30 30 27 30 32 35 34 35 32 31 23 23 19 10 4 5 3 6 6 8 14 21 21 20 20 21 24 27 29 31 31
17 14 40 28 11 15 17 16 25 26 33 33 30 26 29 30 29 28 28 27 25 24 28 36 37 34 32 27 22 20 7 6 5 2 6 9 14 18 16 12 13 16 19 23 27 31 35 37 39
15 16 24 10 2 11 20 20 26 30 31 34 30 28 25 27 29 29 28 26 25 24 25 34 40 33 29 29 24 19 12 8 3 11 6 10 7 7 10 15 18 22 26 30 32 33 36 38 38
21 17 14 5 1 5 20 22 13 20 22 28 31 29 27 27 25 25 24 26 28 29 32 35 34 35 39 39 28 16 7 6 6 4 1 5 7 11 15 19 23 27 29 31 33 35 36 38 40
31 12 11 14 9 18 26 9 16 17 13 16 20 22 23 26 26 25 24 24 28 33 36 45 43 40 41 29 17 9 11 11 9 9 5 5 10 16 21 25 26 28 31 33 36 35 35 36 35
34 40 25 11 20 8 10 12 18 24 21 22 29 27 25 33 28 25 24 26 27 34 39 38 38 37 31 20 14 10 11 11 12 8 3 10 15 19 22 25 28 30 31 30 31 32 32 31 31
10 41 32 19 9 8 7 7 8 28 31 31 36 33 29 35 30 30 23 27 30 34 37 37 37 33 27 20 17 14 14 14 8 2 6 10 14 18 21 25 26 26 28 28 28 29 30 31 32
12 23 26 19 4 7 16 10 13 23 46 36 40 36 34 39 40 39 42 40 42 41 39 38 34 33 30 27 24 18 12 7 2 2 7 10 15 20 22 23 24 25 26 26 29 32 33 33 32
15 16 9 11 6 2 21 14 5 26 26 44 47 46 43 46 49 48 48 46 46 46 44 41 38 36 31 24 21 12 6 4 2 3 7 11 14 16 19 21 22 23 25 27 29 31 31 31 31
27 27 7 10 6 7 7 9 5 5 4 33 55 64 54 59 54 57 53 53 51 50 47 41 32 22 22 20 14 12 8 3 1 4 8 11 14 15 18 19 20 21 22 25 27 30 31 32 32
18 19 6 7 3 6 9 4 7 4 7 28 49 57 57 54 54 62 61 61 63 57 44 24 29 28 22 17 13 9 5 1 5 7 11 14 16 18 19 19 19 20 22 24 26 28 31 33 35
15 14 11 4 17 12 9 9 13 19 25 27 44 62 59 57 60 62 62 57 54 50 46 42 33 25 21 15 10 6 3 1 5 9 13 16 19 19 19 18 18 20 22 24 26 27 30 33 37
13 18 7 3 1 10 10 8 2 19 33 41 49 60 63 61 59 62 58 53 48 43 40 36 31 24 18 13 9 5 2 3 7 11 14 17 20 20 19 19 19 21 22 23 25 28 31 36 41
6 10 26 13 12 1 4 5 3 2 15 32 38 44 50 54 60 65 65 58 51 45 39 32 27 21 16 11 8 4 1 5 9 13 18 21 22 22 21 22 22 23 23 24 27 30 35 40 44
Wind_Direction_500mb
163 168 167 205 218 231 189 171 154 137 133 97 110 229 88 41 1 34 142 153 156 152 165 149 140 126 125 118 113 91 94 103 108 112 110 108 101 91 85 78 69 62 58 56 50 46 41 36 34
180 169 169 210 230 198 170 162 171 109 124 118 99 101 70 74 54 128 136 151 152 151 150 147 139 138 137 127 116 88 88 97 106 108 102 94 89 83 75 67 61 56 52 48 43 34 30 26 22
190 175 211 224 221 206 182 173 130 125 126 140 117 76 68 76 114 129 149 150 147 149 146 147 142 131 142 150 128 98 90 105 101 96 88 77 67 59 55 52 48 42 36 32 30 24 23 17 11
206 175 148 233 200 200 218 161 158 152 111 133 131 93 86 110 115 147 148 150 147 147 144 149 150 137 147 145 125 100 90 102 101 94 81 70 62 55 51 47 41 35 29 22 18 16 15 9 6
195 206 208 222 210 224 227 166 169 157 129 137 160 120 114 138 135 147 147 150 152 148 154 154 152 154 153 156 169 159 112 104 102 97 88 77 63 52 43 34 27 25 27 22 14 8 7 6 2
206 215 213 213 201 200 200 170 172 150 146 137 122 120 126 151 147 148 148 151 157 155 162 167 167 168 163 168 179 158 132 117 106 98 87 69 54 46 36 27 26 22 16 11 8 7 4 1 357
243 211 220 211 204 189 177 173 180 164 149 131 143 121 137 154 156 151 148 151 156 161 169 171 173 175 184 190 179 154 134 98 80 68 62 55 48 46 44 39 31 17 8 4 1 1 0 358 355
217 231 201 213 202 193 158 152 165 175 130 135 141 150 164 168 162 154 158 158 152 160 168 169 168 164 162 171 175 165 149 120 87 59 52 44 39 32 26 20 15 8 4 1 358 355 353 351 349
182 223 208 205 201 175 165 156 145 134 132 116 96 133 149 156 160 158 155 164 165 162 166 161 161 163 166 172 177 165 148 130 85 52 41 36 29 16 14 9 6 1 1 0 358 355 354 353 352
205 220 210 203 195 183 173 169 146 156 142 103 98 123 147 154 159 162 163 169 172 168 164 163 163 167 171 175 176 168 154 128 95 68 61 39 20 10 18 12 6 5 5 4 6 3 357 353 352
186 214 201 202 194 178 157 137 125 162 163 156 160 144 151 156 159 160 164 169 172 170 173 169 169 169 173 170 168 160 137 121 92 70 51 31 17 7 354 347 346 346 353 354 357 349 349 345 345
197 215 194 181 178 169 164 134 102 85 23 133 150 144 154 157 160 163 161 165 161 165 172 176 173 172 171 164 153 143 138 134 151 290 335 340 343 331 329 329 333 329 324 323 325 327 332 326 331
224 198 196 175 162 148 142 126 121 77 114 133 144 151 159 165 174 173 164 159 159 160 174 178 177 173 167 160 156 165 190 222 237 268 307 319 320 322 299 302 306 304 317 324 326 335 337 334 341
219 210 188 167 155 142 137 126 136 113 136 148 154 157 161 167 174 177 176 173 173 175 175 174 172 166 171 180 188 199 224 254 274 293 299 308 300 291 294 309 304 312 329 341 340 339 338 334 336
241 184 160 167 164 131 137 107 100 134 150 141 154 159 162 166 171 177 180 181 184 190 189 187 188 181 191 201 209 218 234 250 248 260 288 295 293 340 315 332 332 328 343 349 341 338 339 349 3
195 201 188 161 169 166 218 176 169 152 157 142 149 157 164 167 175 178 180 187 193 195 198 193 200 193 201 207 212 221 225 237 252 276 307 307 244 4 356 342 342 346 350 346 344 355 354 349 349
251 198 200 162 186 153 206 153 171 166 163 150 145 157 164 168 177 181 189 202 205 203 199 197 200 201 205 208 219 242 215 178 285 300 9 346 339 346 2 342 343 351 360 358 351 346 342 338 337
187 216 195 183 159 184 148 143 151 159 182 162 151 154 164 169 177 183 190 194 188 185 190 193 193 201 209 208 207 197 206 150 125 304 354 357 354 344 347 0 15 5 353 344 343 342 340 338 336
295 244 212 140 87 149 183 144 166 175 181 158 160 163 162 165 172 179 182 182 176 170 166 178 186 189 193 188 179 177 183 163 224 271 292 319 3 35 19 2 356 347 342 345 345 343 340 338 339
216 277 304 1 33 138 149 152 150 198 181 173 170 170 168 161 161 169 176 176 176 172 167 168 183 187 192 185 189 176 168 207 223 254 346 82 45 12 355 351 345 346 344 342 343 348 350 350 352
199 203 250 241 147 68 134 147 177 210 181 181 175 182 171 162 164 161 162 172 172 169 164 166 173 177 178 162 163 197 240 210 170 141 116 34 7 355 347 345 344 345 345 346 348 352 357 1 360
209 192 225 207 180 174 251 182 207 192 194 198 188 186 179 165 161 162 154 161 162 160 160 161 165 171 169 160 170 202 192 171 148 131 60 357 347 342 340 342 343 347 349 351 352 357 1 2 359
229 164 181 203 210 137 201 188 168 170 209 202 194 187 184 165 174 172 174 168 161 159 159 164 165 162 161 175 174 177 169 156 141 73 344 341 340 341 345 345 348 350 354 357 360 3 3 3 0
137 167 170 190 168 226 172 204 186 190 214 188 188 184 175 160 170 164 163 158 157 157 156 155 161 168 161 159 152 161 160 154 140 352 344 341 343 345 347 347 350 353 359 359 0 3 3 3 3
228 172 164 201 183 282 165 184 257 207 206 188 182 179 176 174 171 167 164 156 151 152 152 153 154 150 150 157 156 158 167 176 223 356 329 346 347 351 346 350 350 353 360 359 0 1 1 359 357
205 205 189 237 177 140 111 199 229 36 170 194 178 183 181 178 182 170 165 162 162 157 152 151 157 166 169 163 165 175 170 154 352 356 350 354 350 352 345 347 347 352 358 358 357 357 357 355 351
186 211 205 82 17 138 176 220 235 124 147 165 172 174 180 178 181 173 173 168 167 162 169 187 180 173 167 175 173 156 146 73 19 360 3 354 347 349 344 345 346 349 352 352 352 354 352 349 346
201 143 179 221 164 196 202 229 222 196 182 174 177 182 179 179 180 179 178 176 171 169 164 170 176 174 181 178 169 159 137 35 13 356 354 344 340 341 338 335 336 338 341 341 344 345 345 343 341
176 193 221 82 339 200 172 218 206 207 193 188 188 185 180 177 176 178 177 177 174 173 168 171 173 177 176 176 177 171 144 343 356 346 342 338 338 335 330 323 324 325 327 330 333 335 338 338 337
302 213 201 203 201 58 322 135 57 287 209 186 182 185 180 177 176 178 180 180 179 178 175 175 178 180 180 186 192 203 267 330 334 332 335 336 330 324 316 313 313 314 315 319 322 327 332 333 331
Wind_Speed_850mb
6 7 6 4 10 8 7 6 0 12 11 6 9 2 8 14 8 6 32 25 37 40 31 24 22 24 27 23 22 21 18 19 19 18 19 19 18 18 19 19 20 21 21 21 21 20 19 19 19
8 8 6 5 10 17 15 8 11 5 16 25 20 12 8 10 9 29 24 37 38 38 30 28 28 26 22 19 20 18 18 17 18 18 17 17 16 17 17 18 19 19 18 18 18 18 19 18 18
8 11 10 7 8 20 14 15 17 28 20 13 10 12 7 9 21 18 24 43 42 38 31 29 31 26 22 24 14 11 14 17 16 16 16 16 17 17 18 18 17 16 16 16 16 16 18 17 17
8 5 3 14 21 10 4 17 21 26 11 8 20 17 13 15 9 16 36 41 41 37 33 33 27 25 21 22 11 7 9 13 15 15 14 15 15 15 15 15 15 15 15 17 18 18 18 18 18
9 6 13 15 18 4 8 11 32 20 14 18 8 14 19 13 17 32 39 39 40 38 37 34 29 27 27 23 14 6 9 11 12 13 13 12 12 11 12 13 14 15 15 16 17 19 19 19 18
10 6 13 21 20 9 8 18 23 16 15 17 16 21 13 18 27 36 37 35 34 36 38 36 33 32 25 23 14 8 11 11 11 10 9 9 9 10 11 13 14 15 15 17 19 19 20 20 21
14 12 20 24 18 12 15 19 22 20 23 12 22 14 14 22 36 37 33 32 31 31 35 34 33 32 28 23 18 11 9 8 10 9 8 10 11 11 12 13 14 14 17 19 20 21 21 22 23
7 10 20 21 21 17 20 18 14 17 12 17 9 11 17 33 45 40 37 36 29 27 32 32 30 29 28 23 17 9 8 7 6 7 8 9 10 11 12 12 13 14 16 18 20 21 22 23 24
13 12 22 27 19 17 23 15 8 11 24 11 5 12 29 53 47 41 35 35 32 31 31 31 29 27 27 20 14 9 6 5 4 5 7 9 11 12 13 14 14 16 18 21 23 26 28 28 28
17 16 24 16 16 17 30 23 24 17 26 12 14 30 46 54 48 39 38 32 31 31 32 29 27 24 23 20 15 11 8 7 6 6 6 7 8 10 11 16 17 18 20 22 24 25 27 30 30
15 21 15 16 14 16 25 22 11 21 13 13 30 49 50 51 45 35 29 29 29 28 27 30 29 25 21 16 13 10 10 9 6 5 7 6 9 14 19 20 23 24 24 24 24 25 26 28 33
16 24 14 12 13 14 28 24 20 16 4 11 41 47 48 47 42 34 30 28 25 21 22 24 22 21 18 15 12 11 9 7 2 2 5 6 10 12 16 17 20 22 24 20 21 26 26 27 30
21 14 20 7 13 17 25 22 20 17 22 36 43 45 49 48 42 33 31 31 23 19 17 23 24 21 19 17 15 12 10 9 8 5 7 12 13 12 17 17 19 25 25 22 24 30 30 31 29
20 19 18 19 22 22 31 25 11 9 26 42 48 48 45 43 40 34 32 33 29 24 23 21 22 21 18 16 16 14 11 9 7 8 9 11 14 18 22 24 25 16 19 21 24 31 34 37 35
7 21 13 17 25 9 47 14 10 16 27 37 45 44 41 38 37 34 30 29 26 21 22 24 21 24 23 21 19 12 10 13 15 13 13 17 18 8 5 14 16 18 24 26 28 31 31 27 24
17 17 24 11 18 19 11 21 9 22 26 31 36 38 38 37 34 32 29 26 28 29 29 28 26 27 28 23 21 22 23 22 17 9 13 16 8 8 12 15 20 24 27 28 25 22 22 27 30
7 30 41 16 6 13 14 18 23 32 23 27 30 31 33 32 31 30 30 30 27 30 32 35 34 35 32 31 23 23 19 10 4 5 3 6 6 8 14 21 21 20 20 21 24 27 29 31 31
17 14 40 28 11 15 17 16 25 26 33 33 30 26 29 30 29 28 28 27 25 24 28 36 37 34 32 27 22 20 7 6 5 2 6 9 14 18 16 12 13 16 19 23 27 31 35 37 39
15 16 24 10 2 11 20 20 26 30 31 34 30 28 25 27 29 29 28 26 25 24 25 34 40 33 29 29 24 19 12 8 3 11 6 10 7 7 10 15 18 22 26 30 32 33 36 38 38
21 17 14 5 1 5 20 22 13 20 22 28 31 29 27 27 25 25 24 26 28 29 32 35 34 35 39 39 28 16 7 6 6 4 1 5 7 11 15 19 23 27 29 31 33 35 36 38 40
31 12 11 14 9 18 26 9 16 17 13 16 20 22 23 26 26 25 24 24 28 33 36 45 43 40 41 29 17 9 11 11 9 9 5 5 10 16 21 25 26 28 31 33 36 35 35 36 35
34 40 25 11 20 8 10 12 18 24 21 22 29 27 25 33 28 25 24 26 27 34 39 38 38 37 31 20 14 10 11 11 12 8 3 10 15 19 22 25 28 30 31 30 31 32 32 31 31
10 41 32 19 9 8 7 7 8 28 31 31 36 33 29 35 30 30 23 27 30 34 37 37 37 33 27 20 17 14 14 14 8 2 6 10 14 18 21 25 26 26 28 28 28 29 30 31 32
12 23 26 19 4 7 16 10 13 23 46 36 40 36 34 39 40 39 42 40 42 41 39 38 34 33 30 27 24 18 12 7 2 2 7 10 15 20 22 23 24 25 26 26 29 32 33 33 32
15 16 9 11 6 2 21 14 5 26 26 44 47 46 43 46 49 48 48 46 46 46 44 41 38 36 31 24 21 12 6 4 2 3 7 11 14 16 19 21 22 23 25 27 29 31 31 31 31
27 27 7 10 6 7 7 9 5 5 4 33 55 64 54 59 54 57 53 53 51 50 47 41 32 22 22 20 14 12 8 3 1 4 8 11 14 15 18 19 20 21 22 25 27 30 31 32 32
18 19 6 7 3 6 9 4 7 4 7 28 49 57 57 54 54 62 61 61 63 57 44 24 29 28 22 17 13 9 5 1 5 7 11 14 16 18 19 19 19 20 22 24 26 28 31 33 35
15 14 11 4 17 12 9 9 13 19 25 27 44 62 59 57 60 62 62 57 54 50 46 42 33 25 21 15 10 6 3 1 5 9 13 16 19 19 19 18 18 20 22 24 26 27 30 33 37
13 18 7 3 1 10 10 8 2 19 33 41 49 60 63 61 59 62 58 53 48 43 40 36 31 24 18 13 9 5 2 3 7 11 14 17 20 20 19 19 19 21 22 23 25 28 31 36 41
6 10 26 13 12 1 4 5 3 2 15 32 38 44 50 54 60 65 65 58 51 45 39 32 27 21 16 11 8 4 1 5 9 13 18 21 22 22 21 22 22 23 23 24 27 30 35 40 44
Wind_Direction_850mb
163 168 167 205 218 231 189 171 154 137 133 97 110 229 88 41 1 34 142 153 156 152 165 149 140 126 125 118 113 91 94 103 108 112 110 108 101 91 85 78 69 62 58 56 50 46 41 36 34
180 169 169 210 230 198 170 162 171 109 124 118 99 101 70 74 54 128 136 151 152 151 150 147 139 138 137 127 116 88 88 97 106 108 102 94 89 83 75 67 61 56 52 48 43 34 30 26 22
190 175 211 224 221 206 182 173 130 125 126 140 117 76 68 76 114 129 149 150 147 149 146 147 142 131 142 150 128 98 90 105 101 96 88 77 67 59 55 52 48 42 36 32 30 24 23 17 11
206 175 148 233 200 200 218 161 158 152 111 133 131 93 86 110 115 147 148 150 147 147 144 149 150 137 147 145 125 100 90 102 101 94 81 70 62 55 51 47 41 35 29 22 18 16 15 9 6
195 206 208 222 210 224 227 166 169 157 129 137 160 120 114 138 135 147 147 150 152 148 154 154 152 154 153 156 169 159 112 104 102 97 88 77 63 52 43 34 27 25 27 22 14 8 7 6 2
206 215 213 213 201 200 200 170 172 150 146 137 122 120 126 151 147 148 148 151 157 155 162 167 167 168 163 168 179 158 132 117 106 98 87 69 54 46 36 27 26 22 16 11 8 7 4 1 357
243 211 220 211 204 189 177 173 180 164 149 131 143 121 137 154 156 151 148 151 156 161 169 171 173 175 184 190 179 154 134 98 80 68 62 55 48 46 44 39 31 17 8 4 1 1 0 358 355
217 231 201 213 202 193 158 152 165 175 130 135 141 150 164 168 162 154 158 158 152 160 168 169 168 164 162 171 175 165 149 120 87 59 52 44 39 32 26 20 15 8 4 1 358 355 353 351 349
182 223 208 205 201 175 165 156 145 134 132 116 96 133 149 156 160 158 155 164 165 162 166 161 161 163 166 172 177 165 148 130 85 52 41 36 29 16 14 9 6 1 1 0 358 355 354 353 352
205 220 210 203 195 183 173 169 146 156 142 103 98 123 147 154 159 162 163 169 172 168 164 163 163 167 171 175 176 168 154 128 95 68 61 39 20 10 18 12 6 5 5 4 6 3 357 353 352
186 214 201 202 194 178 157 137 125 162 163 156 160 144 151 156 159 160 164 169 172 170 173 169 169 169 173 170 168 160 137 121 92 70 51 31 17 7 354 347 346 346 353 354 357 349 349 345 345
197 215 194 181 178 169 164 134 102 85 23 133 150 144 154 157 160 163 161 165 161 165 172 176 173 172 171 164 153 143 138 134 151 290 335 340 343 331 329 329 333 329 324 323 325 327 332 326 331
224 198 196 175 162 148 142 126 121 77 114 133 144 151 159 165 174 173 164 159 159 160 174 178 177 173 167 160 156 165 190 222 237 268 307 319 320 322 299 302 306 304 317 324 326 335 337 334 341
219 210 188 167 155 142 137 126 136 113 136 148 154 157 161 167 174 177 176 173 173 175 175 174 172 166 171 180 188 199 224 254 274 293 299 308 300 291 294 309 304 312 329 341 340 339 338 334 336
241 184 160 167 164 131 137 107 100 134 150 141 154 159 162 166 171 177 180 181 184 190 189 187 188 181 191 201 209 218 234 250 248 260 288 295 293 340 315 332 332 328 343 349 341 338 339 349 3
195 201 188 161 169 166 218 176 169 152 157 142 149 157 164 167 175 178 180 187 193 195 198 193 200 193 201 207 212 221 225 237 252 276 307 307 244 4 356 342 342 346 350 346 344 355 354 349 349
251 198 200 162 186 153 206 153 171 166 163 150 145 157 164 168 177 181 189 202 205 203 199 197 200 201 205 208 219 242 215 178 285 300 9 346 339 346 2 342 343 351 360 358 351 346 342 338 337
187 216 195 183 159 184 148 143 151 159 182 162 151 154 164 169 177 183 190 194 188 185 190 193 193 201 209 208 207 197 206 150 125 304 354 357 354 344 347 0 15 5 353 344 343 342 340 338 336
295 244 212 140 87 149 183 144 166 175 181 158 160 163 162 165 172 179 182 182 176 170 166 178 186 189 193 188 179 177 183 163 224 271 292 319 3 35 19 2 356 347 342 345 345 343 340 338 339
216 277 304 1 33 138 149 152 150 198 181 173 170 170 168 161 161 169 176 176 176 172 167 168 183 187 192 185 189 176 168 207 223 254 346 82 45 12 355 351 345 346 344 342 343 348 350 350 352
199 203 250 241 147 68 134 147 177 210 181 181 175 182 171 162 164 161 162 172 172 169 164 166 173 177 178 162 163 197 240 210 170 141 116 34 7 355 347 345 344 345 345 346 348 352 357 1 360
209 192 225 207 180 174 251 182 207 192 194 198 188 186 179 165 161 162 154 161 162 160 160 161 165 171 169 160 170 202 192 171 148 131 60 357 347 342 340 342 343 347 349 351 352 357 1 2 359
229 164 181 203 210 137 201 188 168 170 209 202 194 187 184 165 174 172 174 168 161 159 159 164 165 162 161 175 174 177 169 156 141 73 344 341 340 341 345 345 348 350 354 357 360 3 3 3 0
137 167 170 190 168 226 172 204 186 190 214 188 188 184 175 160 170 164 163 158 157 157 156 155 161 168 161 159 152 161 160 154 140 352 344 341 343 345 347 347 350 353 359 359 0 3 3 3 3
228 172 164 201 183 282 165 184 257 207 206 188 182 179 176 174 171 167 164 156 151 152 152 153 154 150 150 157 156 158 167 176 223 356 329 346 347 351 346 350 350 353 360 359 0 1 1 359 357
205 205 189 237 177 140 111 199 229 36 170 194 178 183 181 178 182 170 165 162 162 157 152 151 157 166 169 163 165 175 170 154 352 356 350 354 350 352 345 347 347 352 358 358 357 357 357 355 351
186 211 205 82 17 138 176 220 235 124 147 165 172 174 180 178 181 173 173 168 167 162 169 187 180 173 167 175 173 156 146 73 19 360 3 354 347 349 344 345 346 349 352 352 352 354 352 349 346
201 143 179 221 164 196 202 229 222 196 182 174 177 182 179 179 180 179 178 176 171 169 164 170 176 174 181 178 169 159 137 35 13 356 354 344 340 341 338 335 336 338 341 341 344 345 345 343 341
176 193 221 82 339 200 172 218 206 207 193 188 188 185 180 177 176 178 177 177 174 173 168 171 173 177 176 176 177 171 144 343 356 346 342 338 338 335 330 323 324 325 327 330 333 335 338 338 337
302 213 201 203 201 58 322 135 57 287 209 186 182 185 180 177 176 178 180 180 179 178 175 175 178 180 180 186 192 203 267 330 334 332 335 336 330 324 316 313 313 314 315 319 322 327 332 333 331